Vorticity
5 6 6 7 7 7 7 7 7 7 7 6 6 6 6 7 7 8 7 8 8 8 8 8 8 7 6 6 6 5 5 6 6 6 7 8 8 8 10 11 11 12 11 13 14 14 15 13 12 12 13 13 11 10 9 9 9 8 10 10 10 11 23 30 15 3 7 15 4 -16 -8 7 1 6 15 6 8 7 1 5 4 8 9 8 17 15 8 9
6 6 6 6 6 7 7 7 7 7 7 6 6 6 6 7 7 7 7 8 8 8 9 8 8 7 7 7 6 6 5 5 6 6 8 9 8 9 11 10 11 11 11 14 14 14 13 11 14 14 15 13 11 10 9 10 7 8 10 9 8 12 31 29 5 6 11 7 8 -8 -18 2 5 9 18 6 8 10 2 7 6 8 9 7 16 14 10 10
8 7 7 7 6 7 7 6 7 6 6 6 6 5 6 6 6 7 7 8 8 8 8 8 9 7 8 7 7 7 5 6 7 7 8 9 9 9 9 9 12 11 12 15 14 14 12 13 16 15 14 13 12 10 9 9 7 9 8 10 11 13 28 22 8 12 6 0 12 10 -10 -8 2 9 16 9 8 7 3 9 8 8 11 12 17 10 5 5
9 8 8 7 7 7 6 6 6 6 6 5 5 5 5 5 5 6 6 7 8 8 8 9 8 8 8 7 8 6 5 8 7 7 7 8 8 7 8 10 12 11 13 15 13 12 12 14 15 13 14 12 11 9 10 10 8 10 7 12 9 13 27 14 9 15 9 8 5 4 -3 -10 -2 5 12 11 6 3 3 7 9 13 11 14 20 9 1 1
9 8 8 8 7 7 6 7 6 6 6 6 6 5 5 6 6 6 6 7 7 8 8 9 8 9 8 7 8 6 7 10 5 6 7 8 8 9 10 10 11 12 14 14 12 12 12 13 11 12 14 12 11 9 11 10 9 10 8 12 6 16 28 2 3 13 8 11 0 -9 -9 -5 1 -0 9 14 5 1 0 -0 6 16 11 8 14 9 3 3
9 9 8 8 8 7 7 6 6 7 6 6 6 5 6 6 6 6 6 6 7 7 8 8 9 8 8 8 8 6 9 8 6 9 9 8 9 10 10 9 10 12 13 12 11 12 11 12 11 13 13 11 12 10 11 9 9 9 9 11 5 21 26 -1 1 6 3 11 5 -7 -13 -2 9 3 9 15 7 3 3 1 4 16 16 7 8 10 9 5
10 10 10 9 9 8 8 7 7 7 6 7 6 6 6 5 6 5 5 6 5 6 7 7 8 8 8 8 8 8 8 7 8 10 9 9 9 9 9 10 12 11 11 11 11 9 8 11 11 12 12 11 11 10 10 8 10 8 9 10 5 21 23 4 4 -2 1 9 1 -4 -12 -7 9 10 10 13 12 9 11 8 -3 4 13 7 5 9 10 7
8 9 9 10 9 9 9 8 7 7 7 7 6 6 6 5 5 5 5 5 5 5 6 7 7 7 8 8 8 9 8 7 9 9 9 10 10 10 10 11 10 9 10 10 9 8 8 9 9 11 11 12 11 10 10 8 10 7 8 10 6 22 21 7 5 -7 -2 7 0 0 -7 -9 -1 3 6 7 3 0 7 9 -2 0 10 9 4 7 10 7
7 7 8 9 9 9 9 9 9 8 8 8 8 7 6 6 5 5 5 5 5 5 5 6 6 7 8 8 9 9 8 8 9 8 9 11 12 12 12 11 8 8 10 9 9 8 8 8 8 10 9 11 10 9 10 7 9 7 8 9 7 23 18 2 4 -4 -2 5 3 1 -4 -8 -11 -6 5 3 -0 0 2 5 1 -0 8 15 6 4 10 10
7 7 7 8 8 9 9 9 9 9 9 9 8 8 7 6 6 6 6 5 5 5 6 6 6 7 8 8 9 8 8 9 9 10 12 14 14 12 11 11 9 9 9 9 10 7 7 9 8 9 8 10 9 9 11 8 10 9 9 9 7 19 16 2 -1 -5 -2 2 1 -2 -3 -2 -5 0 5 1 7 9 4 4 1 -5 4 19 13 3 6 11
8 8 8 8 8 8 9 9 9 9 9 10 10 9 8 8 7 6 6 6 6 6 6 6 6 7 8 10 9 7 9 11 10 10 12 13 12 11 11 10 9 9 9 8 10 6 4 7 9 10 8 10 10 9 10 9 9 9 10 10 7 14 19 12 -3 -11 -6 -1 1 -2 -5 -4 -6 1 4 6 15 14 11 12 7 5 6 11 16 13 9 7
10 9 9 8 8 8 8 9 9 9 9 10 10 10 9 8 7 7 6 6 6 6 5 5 6 7 8 10 8 8 10 12 12 12 13 12 12 13 11 8 8 10 10 7 8 7 4 4 9 11 9 10 10 10 9 8 9 8 9 11 10 13 20 20 4 -7 -7 -7 -2 -1 -1 -5 -5 14 21 17 18 13 13 14 8 13 11 2 8 15 12 6
9 9 9 9 9 8 8 8 9 10 10 10 10 10 10 9 8 7 7 7 7 6 4 5 6 7 9 9 8 10 11 11 13 15 13 12 14 12 6 5 6 10 12 7 5 7 6 4 7 10 11 10 8 10 11 10 11 10 8 9 11 12 20 26 15 0 -4 -2 -0 -1 2 -0 -3 8 10 10 16 9 10 13 5 8 10 5 7 8 5 4
8 8 8 8 8 9 9 8 9 9 10 11 10 10 10 10 10 9 8 7 7 6 4 5 6 7 8 8 8 10 10 10 12 14 11 14 18 10 5 6 6 9 13 10 7 6 7 7 5 7 11 12 9 9 9 10 11 11 11 10 10 11 16 25 24 9 -2 -1 -1 -5 -0 6 0 -14 -19 1 19 11 7 11 6 6 10 7 8 10 6 6
7 7 7 7 8 8 9 9 9 9 9 11 11 11 11 11 11 10 9 8 7 5 4 5 6 6 7 9 10 9 11 12 11 11 12 19 22 9 3 5 4 7 11 13 10 5 7 9 6 6 9 12 11 10 8 9 9 10 12 11 11 12 12 17 24 21 10 2 -2 -9 -9 2 7 -3 -3 14 21 12 5 8 8 5 6 6 9 16 13 12
7 7 7 8 8 8 9 9 9 9 9 10 11 12 12 12 11 10 10 9 8 6 5 6 6 5 5 8 10 8 10 12 11 12 14 18 20 11 3 4 5 6 9 11 11 7 7 8 8 6 6 10 13 12 9 9 8 9 10 10 12 11 11 14 16 21 23 17 10 1 -6 0 8 10 15 19 18 13 4 4 9 8 9 11 12 17 14 13
9 9 10 9 10 10 10 10 10 10 10 10 11 12 12 12 12 12 10 9 9 7 6 5 5 6 6 6 9 9 8 11 12 12 13 14 16 14 7 4 6 6 6 8 11 11 7 6 8 8 6 7 11 11 10 11 12 13 13 14 16 12 11 12 10 16 21 21 20 10 3 3 3 9 15 14 13 13 8 3 7 12 13 11 10 13 10 7
11 11 11 10 11 11 11 12 12 11 11 11 11 12 13 12 12 13 12 10 9 8 8 5 4 6 7 6 7 7 7 11 13 13 13 12 12 13 9 5 4 5 5 6 8 10 10 7 7 9 8 6 8 11 11 12 16 18 18 18 17 13 10 9 11 13 11 17 26 16 9 10 12 19 20 12 8 9 11 5 -3 1 5 5 8 9 7 2
10 10 10 11 11 11 12 13 13 13 13 12 12 12 13 12 12 13 13 11 9 9 8 6 5 5 6 6 6 6 7 9 12 14 14 13 12 12 12 7 3 5 6 6 7 8 10 9 7 8 9 9 9 12 12 12 14 15 15 14 8 7 12 15 17 17 12 13 19 19 22 30 38 38 23 12 13 11 12 6 -6 -3 -0 -0 6 7 3 -3
10 9 9 10 10 11 11 11 12 13 14 14 14 12 11 11 12 13 13 10 8 9 8 6 5 7 8 7 7 8 6 8 11 13 12 13 13 14 15 9 4 5 7 7 7 7 10 11 12 11 10 11 8 10 12 10 12 10 10 9 5 10 20 27 25 17 16 15 15 19 19 18 24 28 22 14 14 12 9 5 -1 -1 -3 -3 8 8 -2 -5
9 9 9 10 10 11 11 11 12 12 13 13 13 13 12 12 13 14 16 14 11 11 10 7 4 6 10 6 6 6 5 9 13 14 12 11 12 14 16 13 6 6 7 7 7 7 10 12 13 10 10 11 9 11 11 8 11 8 5 4 7 17 22 30 25 3 6 17 18 17 9 4 0 4 23 22 9 8 5 5 6 5 4 4 8 2 -6 -4
9 9 9 10 10 10 11 12 13 12 11 11 12 15 16 18 17 16 18 17 17 17 11 8 6 5 8 6 4 5 5 9 12 13 12 12 13 13 15 13 7 7 7 6 7 8 11 13 11 11 11 9 10 13 12 10 9 3 3 4 11 24 22 23 22 2 2 12 13 9 0 4 -2 -7 22 28 10 7 2 2 6 3 6 8 3 -2 -2 -2
8 8 9 9 9 10 11 12 13 13 12 11 12 15 17 18 18 17 19 16 16 19 14 10 9 5 9 12 7 7 7 8 10 10 9 13 16 12 11 12 7 7 8 6 8 8 10 10 8 10 11 10 11 10 10 12 9 5 7 9 19 35 25 9 7 3 2 5 7 4 -5 -1 -1 -5 14 22 15 10 -1 -2 2 -1 6 11 4 1 3 -1
8 9 8 9 9 9 10 11 11 12 15 15 12 11 13 17 18 17 18 15 11 17 17 11 9 6 8 8 3 6 9 8 12 11 7 10 16 13 11 11 7 8 8 7 9 9 10 10 9 10 9 11 12 8 10 13 12 10 8 17 29 29 13 -2 3 12 15 18 15 5 2 8 4 -2 5 15 17 5 -10 -4 6 8 13 16 13 10 7 -0
9 9 9 9 10 10 10 10 10 10 13 16 15 14 13 15 17 14 16 17 12 16 18 11 9 7 6 6 3 6 9 8 13 12 7 8 12 14 13 11 8 7 9 9 10 11 10 8 10 13 12 12 10 8 11 9 12 12 10 28 34 13 5 9 16 20 17 25 23 8 14 18 4 -1 1 13 22 10 -5 -0 8 8 7 7 10 11 5 -3
10 10 9 9 10 10 10 10 11 10 9 12 14 16 14 10 13 14 18 20 14 15 21 16 11 8 7 10 9 7 7 10 12 9 9 9 9 10 12 12 9 7 9 8 9 11 11 10 9 10 13 14 10 7 8 5 10 12 10 27 27 1 3 12 8 3 -5 5 13 9 18 15 4 7 4 6 15 15 9 4 0 -1 -2 -1 1 2 -0 -1
9 10 10 9 10 10 10 10 11 10 9 10 11 12 11 9 11 13 15 16 14 20 26 19 14 12 9 6 5 5 7 10 11 7 9 12 10 10 12 13 10 9 9 7 11 14 11 12 12 9 7 9 11 9 8 8 10 10 7 19 22 1 -2 4 -1 -8 -11 -3 3 4 12 10 7 9 -0 -6 -4 -0 6 4 1 2 -2 -4 -1 0 0 3
10 10 10 10 12 12 11 12 12 11 10 9 10 9 9 11 12 12 12 12 15 24 29 22 15 16 14 10 11 14 13 16 18 12 10 11 8 9 14 14 9 9 11 8 12 14 10 10 11 10 7 5 9 10 14 17 12 13 14 18 22 3 -10 0 4 -4 -5 -2 -3 -2 4 1 -3 -5 -11 -6 2 3 9 10 9 11 8 2 1 4 4 5
12 11 12 12 13 13 13 14 13 13 13 11 11 9 9 11 11 11 11 10 12 17 26 30 23 20 18 13 14 15 9 13 18 14 13 13 9 7 12 14 9 8 13 11 9 10 10 9 4 4 7 8 11 11 15 18 12 15 17 17 24 8 -12 -5 2 5 9 6 -1 -2 2 -0 -2 0 -0 3 8 11 16 17 11 8 9 6 1 0 1 0
12 11 12 11 12 11 12 14 13 13 14 13 12 11 10 10 9 9 10 12 13 12 17 25 23 21 19 13 15 15 4 1 5 7 11 12 10 9 8 10 8 6 8 9 10 11 11 9 4 3 5 7 11 10 8 7 9 17 15 16 25 13 -4 -4 -4 2 9 7 6 4 3 5 8 12 13 9 10 15 18 17 14 11 10 9 4 -1 0 3
11 11 11 11 11 11 12 13 12 12 13 13 12 12 12 11 9 9 12 17 19 15 12 12 10 12 13 10 11 14 10 6 4 3 7 9 9 11 9 8 9 8 7 6 9 11 9 8 9 9 7 4 5 5 4 5 10 16 13 14 24 17 2 -1 -3 -1 -1 -3 2 3 1 6 12 19 21 16 17 21 16 8 9 11 12 12 7 3 7 9
11 11 11 12 11 13 13 13 13 12 12 12 13 13 12 12 11 13 16 16 13 11 10 6 1 -1 4 9 8 7 8 10 10 7 8 10 10 12 13 11 9 9 9 8 10 13 10 7 8 8 6 6 9 13 12 11 11 13 11 9 18 21 11 -0 -5 -4 -3 -3 -1 -1 -3 -4 -1 11 20 17 13 12 12 8 5 6 7 6 7 14 20 16
11 11 11 11 11 11 11 11 12 11 11 12 12 12 11 11 13 14 17 17 14 10 8 6 2 -6 -5 4 8 9 9 9 9 9 8 9 9 11 15 13 9 9 9 8 10 14 13 9 5 5 6 6 14 20 15 10 11 14 15 9 9 18 20 13 6 -0 -3 -2 -2 -2 -1 -4 -6 2 11 14 12 6 6 7 6 9 8 6 12 17 12 8
10 9 9 8 8 8 7 8 8 8 9 9 10 11 12 13 16 13 14 24 24 12 5 6 10 7 3 4 7 10 13 10 6 6 6 7 7 9 14 14 10 9 10 9 9 11 13 11 4 4 8 4 2 8 10 11 12 10 11 10 8 11 15 16 20 19 11 4 2 1 1 0 -0 1 5 12 14 6 4 7 8 8 6 7 10 10 7 7
7 7 7 7 7 7 8 9 9 9 9 8 7 9 10 12 15 13 13 20 17 6 6 6 4 10 13 14 13 9 11 12 9 5 4 4 5 7 15 18 13 9 8 7 9 7 8 10 7 5 10 7 -1 2 10 14 12 8 9 12 11 11 12 13 15 18 18 17 16 13 10 7 4 5 7 12 14 9 7 8 6 5 7 8 3 -0 10 13
7 8 9 10 11 12 13 13 14 14 13 12 12 10 10 9 11 12 14 19 11 5 14 12 4 9 12 12 7 1 9 15 10 8 5 3 4 5 11 16 13 11 10 7 9 8 4 6 6 6 8 9 6 6 10 13 11 10 13 13 9 8 13 16 13 10 12 16 16 14 15 12 9 11 10 8 10 11 11 9 7 7 8 9 6 5 12 11
9 12 13 13 12 12 12 11 11 12 12 14 14 13 13 11 9 10 12 19 15 9 13 10 5 8 9 10 -2 -11 10 20 12 14 8 -0 5 5 5 9 8 8 10 8 8 8 6 4 3 3 4 5 4 1 2 9 13 13 15 11 3 3 9 10 9 10 10 9 10 10 9 6 6 9 9 6 5 5 7 9 10 11 11 12 12 10 13 9
13 13 10 9 9 8 8 8 8 9 9 10 9 10 13 12 12 10 10 16 16 12 10 3 4 4 3 12 2 -11 8 14 11 25 15 -5 2 8 5 8 8 6 7 7 8 7 7 7 6 5 4 5 5 2 0 4 8 9 10 10 5 2 9 10 6 8 8 6 8 8 7 7 5 5 6 4 3 4 8 9 6 4 5 8 6 3 8 11
10 8 6 7 7 7 8 9 11 13 13 13 11 9 10 11 14 14 12 14 15 16 11 -1 1 4 2 7 0 -6 8 6 3 25 25 4 0 5 7 8 7 8 6 6 7 6 6 7 9 9 7 8 8 5 4 4 7 7 4 10 11 3 3 9 10 9 7 5 5 5 7 8 5 4 5 4 7 11 7 4 9 12 7 1 1 4 9 10
6 7 7 7 7 8 10 10 11 12 14 16 17 16 13 10 11 15 15 12 10 16 18 6 -3 -1 2 5 -4 -8 3 6 4 15 24 20 9 2 4 5 7 11 9 7 8 7 7 5 6 7 7 8 6 3 6 9 10 9 3 6 10 3 -1 2 6 9 9 7 5 4 6 7 6 6 6 4 6 7 4 5 13 16 13 8 6 8 10 10
7 8 8 8 9 10 12 12 13 14 15 18 21 24 26 20 13 12 16 17 14 16 21 15 5 -1 -1 4 1 -7 -9 0 9 8 9 20 20 11 7 2 2 5 4 7 8 7 9 7 4 5 4 4 4 2 5 11 14 9 3 3 4 3 4 4 2 5 6 6 8 7 5 6 11 12 11 9 4 1 5 10 8 4 10 17 15 13 13 11
9 8 7 9 11 12 14 15 15 16 16 19 23 25 28 31 26 14 11 19 21 19 17 13 12 10 1 -1 3 1 -7 -6 8 9 -0 4 13 16 16 10 4 3 4 8 9 7 8 8 8 8 3 1 4 3 0 5 14 14 6 4 4 1 2 3 4 6 4 3 4 5 4 3 5 8 10 11 11 9 4 6 16 19 15 12 7 4 8 8
9 9 8 9 13 16 17 15 12 13 12 11 18 26 25 28 34 24 11 13 17 19 18 11 12 15 10 5 3 4 4 -4 1 13 8 3 9 13 14 14 9 8 11 10 9 10 7 5 8 11 7 2 1 4 5 1 7 17 14 6 5 4 -2 -4 2 7 8 6 2 1 2 0 -2 -0 4 9 17 19 13 18 33 27 6 -2 -2 -1 4 6
9 9 7 8 15 18 17 13 9 11 14 9 16 33 29 21 31 33 23 16 14 18 21 12 7 8 12 13 3 0 10 5 0 11 9 1 10 13 8 7 8 8 11 10 9 12 11 7 11 13 9 6 1 0 6 6 6 15 21 11 4 5 2 -3 -2 2 5 7 6 4 3 4 4 4 5 8 8 5 9 20 22 7 -0 2 -1 2 11 12
9 9 8 10 18 21 16 9 3 8 18 16 18 34 35 24 24 30 28 18 12 17 21 15 8 3 7 14 5 -2 10 13 7 9 5 -3 5 16 11 6 9 9 10 12 11 10 14 13 10 8 7 9 10 4 2 4 3 6 16 18 9 5 7 4 0 -0 3 6 7 7 5 5 9 13 12 8 3 -2 4 13 7 -3 1 4 5 17 28 22
9 8 7 9 18 24 17 5 1 11 22 19 15 24 37 40 29 20 21 17 13 19 19 15 13 6 3 9 6 3 8 10 5 3 9 9 5 12 15 8 11 15 11 13 14 9 13 14 7 8 12 11 9 7 5 5 3 1 5 12 11 6 5 6 4 1 3 6 8 10 11 5 5 16 21 14 8 4 6 11 9 2 -2 0 9 15 7 -2
9 9 6 7 19 25 17 4 2 16 23 16 14 18 29 43 35 17 14 15 18 25 21 18 21 14 4 -1 -3 4 10 8 -1 -11 -2 14 11 9 15 12 15 21 16 16 19 12 10 12 8 9 18 19 10 4 3 4 6 8 7 8 12 11 5 4 6 5 4 5 6 8 14 11 4 3 3 4 9 9 9 8 1 -1 5 11 13 7 -1 1
8 10 7 7 19 24 18 6 3 18 24 13 16 23 20 27 31 21 16 14 16 20 18 22 29 24 16 5 -5 1 6 4 4 -7 -14 3 14 12 13 14 15 18 18 20 24 20 17 17 14 8 13 22 20 13 9 3 4 11 12 10 10 11 12 8 4 4 5 6 6 5 8 11 10 2 -5 -2 3 1 2 -0 -7 -1 12 12 5 4 10 14
8 11 8 6 17 25 22 7 -1 17 28 14 15 24 13 15 30 27 15 11 12 11 9 18 29 27 25 21 10 11 9 1 6 7 -8 -5 12 14 8 8 9 9 10 13 14 16 19 21 21 18 13 13 17 24 27 22 18 13 8 9 8 9 20 20 10 7 7 3 1 2 3 6 7 5 3 6 6 2 2 3 4 11 11 1 1 5 5 5
8 10 11 7 11 21 26 13 -2 11 27 20 18 23 11 10 29 29 15 10 12 12 8 13 23 26 27 26 19 18 17 6 3 7 -0 -8 2 11 7 6 10 8 2 3 9 15 16 15 19 23 18 12 17 26 23 23 33 25 7 6 8 6 11 15 13 16 17 11 4 -2 -3 -0 2 6 9 11 11 13 15 14 16 19 12 9 22 26 16 11
8 8 11 9 8 14 23 20 7 6 18 22 21 24 17 9 14 18 18 19 19 14 10 10 16 24 30 31 25 19 18 16 9 4 1 -6 -7 1 1 -2 5 12 6 4 9 14 16 17 18 20 19 18 24 27 15 11 26 28 13 8 9 10 11 9 9 13 16 17 12 5 2 1 -1 -1 1 3 3 2 5 9 9 8 2 -0 5 10 11 11
9 8 9 10 9 11 16 21 17 8 8 17 21 22 23 17 8 3 2 4 7 9 12 13 13 18 25 28 27 20 15 18 16 5 2 2 -6 -7 -3 -6 -6 2 8 8 8 7 8 11 11 16 22 18 12 14 17 19 23 24 21 14 8 9 12 11 11 10 11 14 12 11 18 18 9 0 -2 2 4 2 4 5 1 2 8 9 3 1 7 9
Height
5771 5772 5772 5772 5772 5772 5772 5773 5773 5773 5773 5773 5774 5774 5774 5775 5775 5775 5775 5776 5776 5776 5776 5777 5777 5777 5778 5778 5777 5777 5777 5776 5775 5775 5775 5774 5774 5774 5774 5774 5774 5773 5773 5773 5773 5774 5774 5774 5774 5775 5776 5777 5778 5780 5781 5782 5783 5784 5787 5790 5795 5798 5800 5800 5799 5800 5802 5802 5801 5801 5803 5805 5805 5804 5805 5806 5806 5807 5808 5811 5814 5815 5816 5816 5816 5818 5818 5818
5767 5768 5768 5768 5768 5769 5769 5769 5769 5769 5770 5770 5770 5770 5771 5771 5772 5772 5772 5772 5773 5773 5773 5773 5774 5774 5774 5774 5774 5774 5773 5773 5771 5771 5771 5771 5771 5770 5770 5770 5770 5770 5770 5770 5770 5770 5770 5771 5771 5772 5774 5775 5776 5776 5778 5779 5780 5781 5784 5787 5792 5796 5797 5796 5795 5798 5799 5797 5798 5797 5797 5801 5803 5801 5802 5803 5804 5804 5805 5808 5811 5812 5813 5813 5813 5815 5815 5815
5764 5764 5764 5764 5764 5765 5765 5765 5765 5766 5766 5766 5766 5767 5767 5768 5768 5768 5769 5769 5769 5770 5770 5770 5771 5771 5771 5771 5771 5770 5770 5769 5768 5767 5768 5767 5767 5767 5767 5767 5767 5767 5767 5767 5767 5767 5767 5768 5769 5770 5771 5772 5773 5773 5775 5776 5777 5779 5781 5785 5791 5793 5793 5793 5792 5794 5794 5794 5795 5794 5793 5796 5799 5799 5799 5800 5801 5802 5802 5806 5809 5809 5810 5810 5811 5812 5812 5813
5760 5760 5760 5760 5761 5761 5761 5761 5762 5762 5762 5762 5763 5763 5763 5764 5764 5765 5765 5766 5766 5766 5766 5767 5767 5767 5768 5768 5767 5767 5766 5765 5764 5764 5764 5764 5764 5764 5763 5763 5764 5764 5764 5764 5764 5764 5765 5765 5766 5767 5768 5769 5770 5770 5772 5773 5775 5777 5778 5783 5788 5788 5788 5790 5790 5790 5792 5792 5791 5791 5791 5793 5796 5797 5797 5797 5799 5799 5800 5805 5807 5806 5807 5808 5809 5810 5810 5811
5756 5757 5757 5757 5757 5757 5757 5758 5758 5758 5758 5759 5759 5759 5760 5760 5761 5761 5762 5762 5762 5763 5763 5763 5764 5764 5764 5764 5763 5763 5762 5761 5760 5761 5761 5761 5760 5760 5760 5760 5760 5761 5761 5761 5761 5761 5762 5763 5764 5765 5766 5767 5767 5768 5770 5771 5772 5774 5776 5780 5784 5784 5785 5786 5786 5786 5788 5789 5788 5788 5789 5792 5794 5796 5795 5795 5797 5796 5798 5803 5804 5803 5805 5806 5807 5807 5808 5808
5753 5753 5753 5753 5753 5754 5754 5754 5754 5754 5755 5755 5755 5756 5756 5756 5757 5757 5758 5758 5759 5759 5760 5760 5760 5761 5761 5761 5760 5759 5758 5757 5757 5758 5758 5757 5757 5757 5757 5757 5757 5758 5758 5758 5759 5759 5760 5760 5761 5762 5764 5765 5765 5767 5768 5769 5769 5771 5773 5777 5780 5782 5783 5783 5782 5783 5784 5785 5785 5784 5786 5789 5792 5793 5793 5793 5794 5794 5798 5801 5802 5802 5803 5804 5805 5805 5805 5806
5749 5749 5749 5749 5750 5750 5750 5750 5751 5751 5751 5751 5751 5752 5752 5753 5753 5754 5754 5755 5755 5756 5756 5756 5757 5757 5757 5757 5756 5755 5755 5754 5754 5754 5754 5754 5753 5753 5754 5754 5754 5755 5755 5756 5756 5757 5757 5758 5759 5760 5761 5762 5763 5765 5765 5765 5766 5768 5770 5774 5777 5779 5780 5780 5779 5780 5780 5781 5781 5781 5782 5785 5789 5791 5791 5792 5793 5793 5797 5799 5800 5801 5801 5802 5802 5803 5803 5803
5745 5745 5745 5746 5746 5746 5746 5747 5747 5747 5747 5747 5748 5748 5748 5749 5749 5750 5750 5751 5752 5752 5753 5753 5753 5753 5754 5753 5752 5751 5751 5751 5750 5750 5751 5750 5750 5750 5751 5751 5751 5752 5753 5754 5754 5755 5755 5757 5757 5758 5759 5760 5761 5762 5762 5762 5762 5765 5768 5771 5774 5776 5777 5777 5777 5777 5777 5778 5779 5779 5779 5781 5785 5786 5788 5790 5791 5791 5794 5796 5798 5799 5799 5799 5800 5800 5801 5801
5741 5741 5742 5742 5742 5742 5742 5743 5743 5743 5743 5743 5744 5744 5744 5745 5745 5746 5747 5747 5748 5749 5749 5749 5750 5750 5750 5749 5749 5747 5747 5747 5746 5746 5747 5747 5747 5747 5747 5748 5749 5749 5750 5751 5752 5753 5754 5754 5755 5755 5756 5757 5757 5758 5759 5759 5760 5763 5765 5767 5770 5773 5774 5773 5774 5775 5776 5776 5777 5777 5777 5778 5780 5782 5784 5786 5788 5789 5791 5793 5795 5797 5797 5797 5797 5798 5798 5799
5737 5738 5738 5738 5738 5738 5738 5739 5739 5739 5739 5739 5740 5740 5740 5741 5741 5742 5743 5744 5744 5745 5745 5745 5746 5746 5746 5745 5745 5744 5744 5744 5743 5743 5744 5744 5744 5744 5744 5745 5746 5747 5748 5749 5750 5751 5751 5751 5752 5752 5753 5754 5755 5756 5757 5758 5759 5760 5762 5763 5765 5768 5769 5770 5770 5772 5773 5773 5774 5774 5775 5777 5778 5779 5781 5783 5787 5788 5789 5790 5791 5793 5795 5795 5795 5795 5796 5797
5733 5733 5734 5734 5734 5734 5734 5735 5735 5735 5735 5735 5735 5736 5736 5737 5737 5738 5739 5740 5741 5741 5741 5742 5742 5742 5742 5741 5741 5740 5740 5740 5740 5740 5740 5740 5741 5741 5742 5743 5744 5745 5745 5746 5747 5748 5748 5748 5749 5749 5750 5752 5753 5754 5754 5755 5757 5757 5758 5760 5762 5765 5767 5767 5768 5769 5769 5770 5771 5772 5773 5775 5777 5779 5780 5782 5786 5786 5787 5788 5788 5790 5792 5793 5793 5793 5794 5795
5729 5729 5729 5729 5730 5730 5730 5730 5730 5730 5731 5731 5731 5731 5732 5732 5733 5734 5735 5736 5737 5737 5737 5738 5738 5739 5738 5737 5737 5737 5737 5737 5736 5736 5736 5737 5737 5738 5739 5740 5741 5742 5743 5744 5745 5745 5746 5746 5746 5747 5749 5750 5750 5751 5752 5753 5754 5755 5756 5758 5761 5763 5765 5766 5766 5767 5767 5768 5769 5770 5771 5773 5775 5779 5780 5782 5784 5783 5784 5786 5787 5788 5789 5791 5792 5791 5791 5792
5725 5725 5725 5725 5725 5726 5726 5726 5726 5726 5726 5726 5727 5727 5728 5728 5729 5730 5731 5732 5733 5733 5734 5734 5735 5735 5734 5733 5733 5734 5733 5733 5733 5733 5733 5733 5734 5735 5736 5737 5738 5739 5740 5741 5742 5742 5743 5743 5744 5745 5746 5747 5748 5749 5750 5751 5752 5753 5754 5756 5758 5761 5763 5766 5766 5766 5766 5767 5768 5767 5768 5771 5774 5779 5781 5781 5781 5781 5782 5783 5784 5786 5787 5789 5789 5788 5789 5790
5720 5720 5721 5721 5721 5721 5722 5722 5722 5722 5722 5722 5722 5723 5723 5724 5725 5725 5726 5727 5728 5729 5730 5731 5731 5731 5731 5729 5730 5730 5730 5730 5729 5729 5730 5730 5732 5732 5732 5734 5735 5736 5737 5738 5739 5740 5740 5741 5741 5743 5744 5745 5746 5747 5748 5749 5749 5751 5752 5753 5756 5758 5762 5765 5765 5765 5765 5766 5766 5765 5766 5769 5773 5777 5780 5780 5780 5779 5780 5781 5782 5783 5785 5786 5787 5786 5787 5788
5716 5716 5716 5717 5717 5717 5717 5717 5718 5718 5718 5718 5718 5718 5719 5720 5720 5721 5722 5723 5724 5725 5727 5728 5727 5728 5727 5726 5727 5727 5726 5726 5726 5725 5726 5728 5729 5729 5729 5731 5732 5733 5735 5735 5736 5737 5738 5738 5739 5740 5741 5742 5743 5744 5745 5746 5747 5749 5750 5752 5754 5756 5760 5762 5763 5764 5765 5766 5766 5764 5764 5767 5771 5775 5779 5780 5778 5776 5777 5778 5779 5781 5782 5783 5783 5784 5786 5786
5712 5712 5713 5713 5713 5713 5713 5713 5713 5713 5713 5714 5714 5714 5715 5716 5716 5717 5718 5719 5720 5721 5723 5724 5724 5724 5723 5723 5723 5723 5723 5722 5722 5722 5723 5725 5726 5726 5726 5728 5730 5731 5732 5733 5733 5734 5735 5736 5737 5738 5739 5739 5741 5742 5743 5743 5745 5747 5748 5751 5752 5754 5756 5759 5760 5761 5763 5765 5765 5764 5763 5765 5768 5773 5777 5777 5776 5774 5774 5775 5776 5778 5779 5780 5781 5782 5783 5784
5708 5709 5709 5709 5709 5709 5709 5709 5709 5709 5709 5709 5709 5710 5711 5711 5711 5713 5714 5715 5716 5718 5719 5720 5720 5720 5720 5720 5720 5720 5719 5719 5719 5719 5720 5721 5722 5723 5724 5726 5727 5728 5729 5730 5731 5731 5732 5733 5734 5735 5736 5737 5739 5740 5740 5742 5745 5746 5747 5749 5750 5750 5751 5753 5756 5757 5759 5761 5761 5761 5760 5762 5767 5772 5774 5774 5773 5773 5771 5772 5774 5775 5776 5777 5779 5780 5780 5781
5705 5705 5705 5705 5705 5705 5705 5705 5705 5705 5705 5705 5705 5705 5706 5706 5707 5708 5710 5711 5712 5713 5715 5716 5716 5716 5716 5717 5717 5716 5716 5716 5716 5716 5716 5717 5718 5719 5721 5723 5724 5725 5726 5727 5728 5729 5730 5730 5731 5733 5734 5736 5737 5738 5739 5742 5743 5743 5744 5745 5745 5746 5747 5750 5752 5753 5754 5755 5757 5758 5759 5761 5765 5769 5771 5770 5770 5771 5769 5769 5770 5772 5773 5774 5776 5776 5777 5779
5701 5701 5701 5701 5701 5701 5701 5701 5701 5701 5701 5701 5701 5701 5701 5702 5703 5704 5705 5707 5708 5709 5711 5712 5713 5713 5713 5713 5713 5713 5714 5713 5713 5713 5713 5714 5714 5716 5718 5720 5721 5722 5724 5725 5726 5726 5727 5728 5729 5731 5733 5734 5735 5736 5738 5740 5740 5740 5740 5741 5741 5743 5745 5748 5749 5749 5750 5750 5752 5755 5757 5760 5763 5764 5766 5767 5768 5768 5768 5766 5765 5767 5769 5771 5771 5773 5775 5778
5697 5697 5697 5697 5697 5697 5697 5697 5697 5697 5697 5696 5696 5697 5697 5697 5698 5699 5701 5703 5704 5705 5707 5708 5709 5709 5709 5709 5710 5711 5711 5710 5711 5711 5711 5711 5712 5713 5715 5717 5718 5720 5722 5723 5723 5723 5724 5725 5727 5730 5732 5732 5732 5734 5735 5736 5736 5736 5737 5738 5740 5742 5744 5746 5746 5747 5747 5746 5748 5752 5754 5757 5760 5761 5763 5764 5765 5766 5765 5763 5762 5764 5766 5767 5768 5771 5774 5777
5693 5693 5693 5693 5693 5693 5693 5693 5693 5693 5693 5692 5692 5692 5692 5693 5694 5695 5697 5700 5701 5701 5703 5704 5705 5706 5707 5706 5706 5707 5707 5708 5709 5709 5709 5709 5710 5711 5713 5714 5716 5718 5720 5720 5720 5721 5722 5724 5726 5728 5728 5728 5729 5731 5732 5733 5733 5734 5735 5737 5738 5741 5743 5743 5744 5744 5744 5743 5746 5749 5751 5754 5757 5759 5760 5761 5762 5763 5762 5761 5761 5763 5764 5765 5767 5770 5773 5775
5689 5689 5690 5689 5689 5689 5689 5689 5689 5689 5689 5688 5688 5688 5688 5689 5690 5691 5694 5696 5698 5698 5699 5700 5701 5703 5704 5702 5703 5703 5704 5706 5707 5707 5707 5707 5708 5709 5710 5712 5714 5716 5716 5717 5717 5718 5720 5723 5724 5725 5725 5726 5727 5728 5729 5730 5731 5732 5733 5734 5736 5739 5741 5741 5742 5742 5742 5742 5745 5748 5749 5751 5754 5756 5758 5759 5759 5761 5760 5759 5760 5761 5762 5764 5767 5769 5771 5773
5686 5686 5686 5686 5685 5685 5685 5685 5686 5685 5685 5685 5685 5685 5685 5685 5686 5688 5689 5690 5694 5695 5694 5696 5697 5699 5701 5701 5700 5700 5702 5704 5705 5705 5705 5705 5706 5706 5707 5709 5711 5712 5713 5714 5716 5717 5719 5720 5721 5721 5722 5724 5725 5726 5727 5728 5729 5730 5731 5733 5735 5738 5738 5739 5740 5740 5741 5742 5745 5746 5747 5749 5751 5753 5755 5755 5756 5758 5758 5758 5758 5759 5761 5763 5766 5768 5770 5771
5682 5682 5682 5682 5682 5682 5682 5682 5682 5682 5682 5682 5682 5682 5683 5682 5682 5684 5684 5685 5689 5691 5690 5691 5693 5696 5699 5698 5696 5697 5700 5702 5702 5702 5702 5703 5704 5703 5705 5707 5708 5710 5711 5712 5714 5715 5716 5717 5718 5719 5720 5722 5722 5724 5725 5727 5728 5729 5730 5732 5734 5735 5736 5737 5738 5739 5740 5742 5743 5744 5744 5746 5749 5751 5752 5752 5754 5755 5755 5755 5756 5758 5760 5762 5764 5766 5767 5769
5679 5679 5679 5678 5678 5678 5678 5678 5678 5679 5679 5679 5679 5680 5680 5679 5678 5679 5680 5680 5684 5687 5687 5687 5690 5693 5695 5694 5695 5696 5697 5699 5700 5700 5700 5701 5702 5702 5703 5705 5706 5708 5709 5710 5712 5713 5713 5714 5716 5717 5718 5720 5720 5722 5723 5725 5726 5727 5729 5731 5732 5733 5734 5735 5736 5737 5738 5739 5740 5742 5743 5744 5747 5749 5750 5751 5753 5753 5753 5753 5754 5756 5758 5760 5762 5764 5766 5768
5676 5675 5675 5675 5675 5675 5675 5675 5675 5676 5677 5676 5677 5677 5677 5676 5675 5676 5677 5677 5680 5684 5684 5684 5686 5690 5691 5692 5693 5693 5694 5696 5697 5696 5697 5699 5699 5699 5700 5702 5704 5706 5706 5707 5709 5710 5711 5712 5714 5715 5716 5718 5719 5720 5721 5722 5724 5726 5728 5730 5730 5731 5732 5733 5735 5735 5736 5737 5737 5740 5742 5743 5746 5748 5748 5749 5751 5751 5752 5752 5753 5755 5756 5759 5761 5762 5764 5765
5672 5672 5672 5672 5672 5671 5672 5672 5672 5673 5674 5674 5674 5674 5673 5672 5673 5673 5674 5674 5676 5679 5681 5682 5683 5686 5688 5689 5689 5690 5691 5693 5692 5692 5695 5697 5696 5696 5698 5700 5702 5703 5703 5704 5706 5708 5709 5711 5712 5713 5714 5716 5717 5718 5719 5720 5722 5724 5726 5728 5729 5729 5730 5731 5733 5734 5734 5735 5736 5737 5740 5742 5744 5746 5746 5747 5748 5749 5751 5752 5753 5754 5755 5757 5759 5760 5761 5763
5669 5669 5668 5669 5669 5668 5668 5669 5669 5669 5670 5671 5671 5670 5669 5670 5671 5671 5671 5672 5674 5676 5677 5679 5680 5682 5684 5685 5686 5688 5689 5689 5689 5690 5692 5694 5693 5694 5696 5698 5700 5700 5701 5702 5705 5706 5707 5709 5710 5711 5712 5713 5715 5716 5718 5719 5720 5722 5724 5725 5726 5727 5728 5729 5731 5732 5733 5734 5735 5736 5737 5740 5743 5744 5744 5745 5745 5746 5748 5750 5752 5753 5754 5755 5756 5757 5759 5760
5666 5665 5665 5666 5666 5665 5665 5666 5666 5666 5667 5667 5667 5667 5667 5668 5669 5669 5669 5671 5673 5674 5675 5676 5678 5679 5680 5682 5684 5686 5686 5687 5687 5687 5689 5691 5691 5693 5694 5696 5697 5697 5698 5700 5703 5704 5705 5706 5707 5708 5710 5711 5713 5715 5716 5717 5719 5720 5721 5722 5724 5725 5726 5728 5729 5731 5731 5732 5734 5735 5736 5738 5741 5742 5742 5742 5742 5744 5746 5748 5750 5751 5752 5753 5754 5756 5757 5758
5663 5662 5662 5662 5663 5663 5663 5663 5663 5663 5664 5664 5664 5664 5665 5665 5665 5665 5667 5670 5671 5672 5673 5674 5675 5677 5678 5680 5682 5684 5684 5685 5686 5685 5687 5689 5689 5690 5692 5693 5694 5694 5695 5698 5700 5702 5703 5704 5704 5705 5707 5709 5711 5713 5714 5715 5717 5718 5719 5721 5722 5723 5724 5726 5728 5729 5730 5730 5732 5734 5735 5737 5739 5740 5740 5740 5740 5741 5743 5745 5747 5749 5750 5751 5753 5755 5755 5756
5660 5659 5659 5659 5660 5660 5660 5660 5660 5660 5661 5661 5661 5661 5662 5662 5662 5663 5665 5668 5669 5670 5671 5671 5671 5673 5674 5676 5678 5681 5681 5682 5683 5683 5685 5686 5686 5688 5689 5690 5691 5692 5693 5695 5698 5700 5700 5701 5702 5704 5705 5707 5708 5710 5712 5713 5715 5716 5717 5719 5721 5722 5723 5725 5726 5727 5728 5729 5731 5732 5733 5735 5736 5738 5738 5738 5738 5740 5742 5744 5746 5747 5748 5749 5751 5752 5753 5754
5657 5657 5657 5657 5657 5658 5658 5658 5658 5657 5658 5658 5658 5658 5659 5659 5660 5662 5664 5666 5666 5667 5668 5667 5667 5667 5669 5671 5674 5677 5678 5679 5679 5680 5682 5684 5685 5686 5687 5688 5689 5690 5692 5694 5696 5697 5698 5699 5701 5702 5704 5705 5707 5709 5711 5712 5713 5714 5715 5717 5718 5720 5722 5723 5724 5725 5726 5728 5729 5731 5732 5733 5734 5736 5737 5737 5737 5738 5740 5741 5742 5743 5745 5747 5748 5749 5750 5752
5655 5655 5655 5655 5654 5655 5655 5655 5655 5654 5654 5655 5655 5655 5655 5656 5658 5660 5661 5662 5663 5665 5664 5664 5665 5665 5666 5668 5670 5672 5674 5675 5676 5677 5679 5681 5682 5683 5685 5685 5686 5688 5690 5692 5693 5695 5696 5698 5699 5700 5702 5704 5706 5708 5709 5711 5712 5713 5713 5714 5716 5717 5719 5720 5722 5723 5724 5726 5727 5729 5731 5730 5731 5734 5735 5736 5736 5737 5738 5739 5740 5741 5743 5745 5746 5746 5748 5749
5653 5653 5653 5653 5652 5652 5652 5652 5652 5651 5651 5652 5652 5652 5652 5654 5656 5657 5658 5659 5660 5661 5661 5661 5663 5664 5665 5665 5667 5669 5671 5673 5674 5674 5675 5677 5679 5681 5682 5683 5684 5686 5688 5689 5690 5692 5694 5695 5697 5699 5701 5703 5705 5707 5708 5709 5710 5711 5712 5713 5714 5715 5717 5719 5720 5721 5723 5724 5725 5727 5728 5727 5728 5731 5733 5734 5734 5735 5736 5737 5738 5739 5741 5743 5743 5744 5746 5748
5651 5651 5651 5650 5650 5649 5649 5649 5649 5649 5648 5648 5648 5649 5650 5651 5652 5653 5654 5656 5655 5655 5656 5658 5659 5661 5662 5663 5664 5666 5668 5670 5671 5671 5671 5672 5675 5678 5680 5681 5682 5684 5685 5686 5687 5689 5691 5693 5696 5698 5700 5701 5703 5705 5706 5707 5708 5709 5710 5711 5712 5714 5715 5717 5718 5719 5721 5722 5723 5724 5725 5725 5726 5728 5730 5731 5732 5733 5734 5734 5735 5737 5738 5740 5741 5742 5744 5746
5649 5649 5648 5648 5647 5646 5646 5646 5646 5646 5645 5645 5645 5646 5647 5648 5648 5649 5651 5652 5652 5653 5654 5655 5656 5658 5659 5660 5662 5664 5666 5667 5667 5667 5668 5669 5672 5675 5677 5679 5679 5681 5682 5684 5686 5687 5689 5691 5694 5696 5697 5699 5701 5703 5704 5705 5706 5707 5708 5709 5710 5712 5713 5715 5716 5717 5718 5720 5721 5721 5722 5722 5724 5726 5728 5730 5731 5731 5732 5733 5733 5734 5735 5737 5739 5740 5742 5743
5647 5646 5645 5645 5644 5644 5643 5643 5643 5642 5642 5642 5641 5642 5643 5643 5644 5645 5646 5647 5649 5650 5652 5653 5654 5655 5656 5656 5658 5659 5661 5662 5663 5665 5665 5665 5668 5670 5673 5675 5676 5678 5679 5681 5683 5685 5686 5689 5692 5694 5695 5697 5698 5699 5701 5702 5703 5705 5706 5706 5708 5709 5710 5711 5713 5714 5715 5717 5718 5718 5719 5720 5721 5723 5725 5728 5729 5730 5731 5732 5732 5732 5732 5734 5736 5737 5739 5740
5645 5644 5643 5642 5642 5641 5640 5640 5639 5639 5639 5638 5638 5638 5639 5639 5640 5640 5642 5643 5644 5645 5647 5649 5650 5651 5652 5653 5654 5654 5655 5657 5659 5661 5661 5662 5663 5666 5669 5671 5673 5675 5676 5679 5680 5681 5683 5686 5689 5691 5693 5694 5695 5696 5697 5698 5699 5701 5703 5703 5705 5706 5707 5709 5710 5711 5713 5714 5715 5716 5717 5717 5718 5721 5723 5725 5727 5728 5729 5730 5729 5729 5730 5731 5732 5734 5735 5737
5642 5642 5641 5640 5639 5638 5637 5636 5635 5635 5635 5634 5634 5634 5634 5635 5635 5636 5637 5638 5639 5640 5642 5645 5646 5647 5648 5649 5650 5651 5652 5653 5654 5656 5658 5659 5661 5663 5666 5668 5670 5673 5674 5676 5678 5679 5681 5684 5686 5688 5690 5691 5692 5693 5694 5696 5697 5698 5699 5700 5702 5703 5704 5706 5707 5709 5711 5712 5713 5715 5715 5716 5717 5719 5721 5722 5724 5725 5725 5725 5725 5724 5725 5727 5729 5730 5732 5733
5640 5640 5639 5638 5637 5635 5634 5633 5632 5631 5630 5629 5629 5629 5629 5630 5631 5632 5632 5633 5634 5636 5638 5640 5642 5643 5644 5646 5647 5648 5649 5650 5651 5653 5655 5656 5658 5661 5663 5665 5668 5670 5672 5674 5675 5676 5678 5680 5684 5686 5687 5688 5689 5689 5691 5693 5695 5695 5696 5697 5699 5701 5702 5703 5705 5706 5708 5709 5711 5712 5713 5714 5715 5717 5718 5719 5720 5720 5721 5721 5722 5721 5721 5723 5726 5727 5729 5730
5638 5637 5636 5635 5634 5632 5631 5629 5628 5627 5626 5625 5624 5623 5623 5624 5626 5627 5627 5629 5631 5633 5634 5636 5638 5639 5640 5641 5643 5644 5646 5647 5648 5649 5651 5654 5656 5658 5660 5662 5664 5667 5669 5671 5672 5673 5675 5677 5680 5684 5685 5685 5685 5685 5688 5691 5692 5693 5694 5695 5697 5698 5700 5701 5702 5703 5705 5707 5708 5710 5710 5712 5713 5714 5715 5717 5718 5718 5719 5719 5720 5721 5721 5722 5724 5726 5727 5728
5636 5635 5634 5632 5631 5629 5627 5625 5624 5623 5622 5621 5619 5619 5618 5619 5621 5622 5622 5625 5627 5628 5630 5632 5634 5635 5636 5637 5639 5641 5642 5643 5645 5647 5649 5652 5654 5655 5657 5659 5661 5663 5665 5667 5669 5670 5672 5674 5677 5680 5682 5682 5681 5682 5684 5688 5690 5691 5691 5693 5694 5695 5697 5699 5700 5701 5703 5705 5706 5708 5708 5709 5711 5711 5713 5715 5716 5716 5716 5717 5717 5719 5721 5722 5723 5724 5725 5726
5634 5633 5631 5630 5628 5626 5624 5622 5621 5620 5619 5617 5616 5614 5614 5614 5615 5616 5617 5619 5621 5623 5626 5627 5628 5630 5632 5634 5637 5639 5638 5640 5643 5645 5647 5649 5651 5652 5653 5656 5658 5659 5661 5663 5665 5667 5670 5671 5673 5677 5679 5679 5678 5679 5681 5684 5687 5688 5688 5690 5691 5692 5694 5696 5697 5699 5700 5702 5703 5705 5705 5706 5708 5709 5710 5713 5714 5714 5714 5714 5715 5716 5719 5720 5721 5722 5723 5723
5633 5631 5629 5627 5625 5623 5622 5620 5618 5617 5615 5613 5612 5610 5610 5610 5610 5611 5613 5614 5615 5618 5620 5621 5622 5625 5627 5630 5634 5635 5635 5638 5641 5643 5645 5646 5647 5648 5650 5652 5654 5656 5658 5659 5662 5664 5666 5667 5669 5672 5675 5676 5676 5676 5678 5681 5683 5685 5686 5687 5688 5690 5692 5694 5695 5696 5697 5698 5700 5701 5702 5703 5705 5706 5707 5710 5712 5712 5712 5712 5713 5714 5715 5716 5718 5719 5719 5719
5631 5629 5627 5625 5623 5621 5620 5618 5617 5614 5612 5610 5608 5607 5606 5606 5606 5608 5609 5609 5611 5613 5615 5616 5618 5621 5624 5628 5632 5632 5632 5636 5639 5641 5642 5643 5644 5646 5647 5649 5650 5652 5654 5656 5658 5660 5661 5663 5666 5668 5670 5672 5673 5673 5674 5677 5680 5681 5683 5685 5686 5687 5689 5691 5693 5694 5694 5696 5697 5698 5699 5700 5702 5703 5705 5707 5709 5710 5711 5711 5711 5712 5713 5714 5715 5716 5715 5715
5628 5627 5625 5623 5621 5619 5618 5616 5614 5612 5609 5607 5605 5604 5603 5602 5602 5604 5605 5606 5609 5611 5612 5614 5616 5619 5623 5627 5629 5629 5629 5634 5638 5639 5640 5641 5642 5644 5644 5646 5648 5649 5652 5654 5655 5657 5658 5660 5663 5664 5667 5669 5670 5670 5671 5673 5675 5677 5680 5682 5684 5684 5685 5687 5689 5690 5692 5693 5694 5695 5696 5698 5699 5699 5701 5704 5706 5707 5708 5709 5709 5710 5711 5712 5713 5714 5714 5713
5627 5625 5623 5621 5619 5617 5615 5614 5612 5610 5607 5606 5604 5602 5601 5600 5600 5602 5603 5605 5608 5610 5612 5614 5616 5619 5622 5624 5626 5627 5628 5633 5636 5637 5638 5638 5640 5641 5642 5644 5646 5648 5650 5652 5653 5654 5655 5657 5659 5661 5663 5664 5665 5667 5668 5669 5671 5673 5676 5679 5680 5681 5682 5684 5686 5687 5689 5690 5692 5693 5694 5695 5696 5697 5699 5702 5704 5705 5706 5707 5708 5708 5709 5710 5711 5712 5712 5712
5625 5623 5622 5619 5617 5615 5614 5612 5611 5608 5606 5604 5603 5601 5600 5600 5599 5601 5603 5605 5607 5609 5612 5614 5616 5619 5620 5622 5624 5625 5627 5631 5634 5635 5636 5636 5638 5639 5640 5642 5644 5645 5647 5649 5651 5652 5652 5654 5656 5658 5660 5661 5662 5663 5664 5665 5667 5669 5672 5674 5676 5677 5678 5680 5682 5684 5686 5687 5688 5689 5691 5693 5694 5695 5696 5698 5701 5702 5704 5705 5706 5706 5706 5707 5708 5709 5709 5710
5624 5623 5621 5618 5616 5614 5613 5611 5610 5607 5605 5603 5602 5601 5600 5600 5599 5601 5603 5605 5607 5609 5611 5613 5615 5617 5619 5620 5622 5624 5626 5629 5631 5632 5634 5635 5636 5637 5639 5640 5641 5643 5644 5646 5648 5650 5651 5652 5654 5655 5657 5658 5658 5659 5661 5662 5663 5665 5667 5669 5672 5674 5675 5676 5679 5681 5683 5684 5685 5686 5688 5689 5691 5692 5693 5695 5697 5698 5700 5702 5703 5704 5704 5704 5705 5706 5706 5707
5623 5622 5620 5618 5616 5613 5612 5610 5609 5607 5604 5603 5601 5600 5600 5600 5600 5601 5603 5605 5606 5608 5610 5611 5613 5615 5616 5618 5620 5622 5624 5626 5628 5630 5631 5632 5633 5635 5637 5639 5640 5641 5643 5644 5646 5648 5649 5650 5652 5653 5654 5655 5656 5656 5657 5658 5659 5661 5663 5666 5668 5670 5672 5673 5676 5678 5680 5682 5683 5684 5685 5686 5689 5690 5691 5692 5693 5694 5696 5698 5699 5700 5701 5701 5702 5702 5702 5704
5622 5621 5619 5618 5616 5613 5611 5610 5608 5606 5604 5603 5601 5600 5600 5600 5601 5602 5603 5605 5606 5607 5608 5609 5610 5612 5613 5615 5617 5619 5621 5623 5625 5627 5628 5630 5631 5633 5635 5636 5637 5639 5640 5642 5643 5645 5646 5648 5649 5650 5650 5652 5654 5654 5655 5656 5657 5658 5660 5663 5664 5666 5668 5670 5673 5675 5677 5679 5681 5682 5683 5685 5686 5688 5688 5690 5690 5691 5692 5694 5695 5697 5698 5698 5698 5699 5700 5701
5621 5620 5618 5617 5615 5613 5611 5610 5608 5606 5605 5603 5601 5601 5600 5600 5601 5602 5603 5604 5605 5606 5607 5607 5608 5609 5610 5611 5613 5615 5618 5620 5622 5624 5626 5628 5630 5631 5632 5633 5634 5636 5637 5638 5640 5642 5644 5645 5647 5648 5648 5649 5651 5652 5653 5653 5654 5655 5657 5659 5661 5663 5665 5667 5669 5672 5674 5676 5678 5680 5681 5682 5683 5684 5685 5687 5687 5688 5689 5691 5693 5694 5695 5695 5696 5696 5697 5699